Hettinger, ND

5:42 AM MST on November 18, 2017 (GMT -0700)
Hettinger Municipal

Weather History for KHEI - August, 2013

Change the Weather History Date:

Saturday, August 3, 2013

  Actual Average Record
Temperature  
Mean Temperature 66 °F -  
Max Temperature 78 °F 85 °F 98 °F (2016)
Min Temperature 54 °F 55 °F 44 °F (2015)
Cooling Degree Days 1 6  
Month to date cooling degree days 3 18  
Year to date cooling degree days 101 218  
Since 1 June cooling degree days 94 213  
Growing Degree Days 16 (Base 50)    
Moisture  
Dew Point 55 °F    
Average Humidity 67    
Maximum Humidity 93    
Minimum Humidity 42    
Precipitation  
Precipitation 0.24 in 0.08 in 0.28 in (2004)
Month to date precipitation 0.43 0.23  
Year to date precipitation 15.13 10.81  
Sea Level Pressure  
Sea Level Pressure 30.12 in    
Wind  
Wind Speed 12 mph (ESE)    
Max Wind Speed 24 mph    
Max Gust Speed 32 mph    
Visibility 10 miles    
Events Rain , Thunderstorm    
T = Trace of Precipitation, MM = Missing Value Source: NWS Daily Summary

Daily Weather History Graph

Daily Weather History Graph

Search for Another Location

Airport or City:

Trip Planner

Search our weather history database for the weather conditions in past years. The results will help you decide how hot, cold, wet, or windy it might be!

Date:

Astronomy

Aug. 03, 2013 Rise Set
Actual Time 5:35 AM MDT 8:17 PM MDT
Civil Twilight 5:01 AM MDT 8:51 PM MDT
Nautical Twilight 4:18 AM MDT 9:34 PM MDT
Astronomical Twilight 3:27 AM MDT 10:24 PM MDT
Moon 2:44 AM MDT (8/3) 6:02 PM MDT (8/3)
Length of Visible Light 15h 49m
Length of Day
14h 41m
Waning Crescent, 9% of the Moon is Illuminated
Aug 3
Waning Crescent
Aug 6
New
Aug 14
First Quarter
Aug 20
Full
Aug 28
Last Quarter

Hourly Weather History & Observations

Time (MDT) Temp. Dew Point Humidity Pressure Visibility Wind Dir Wind Speed Gust Speed Precip Events Conditions
12:53 AM 59.0 °F 55.9 °F 90% 30.13 in 10.0 mi Calm Calm - N/A   Scattered Clouds
1:53 AM 57.0 °F 54.0 °F 89% 30.12 in 10.0 mi East 3.5 mph - N/A   Mostly Cloudy
2:53 AM 55.9 °F 53.1 °F 90% 30.12 in 10.0 mi SE 3.5 mph - N/A   Clear
3:53 AM 55.0 °F 53.1 °F 93% 30.12 in 10.0 mi ENE 5.8 mph - N/A   Clear
4:53 AM 55.0 °F 53.1 °F 93% 30.12 in 10.0 mi Calm Calm - N/A   Clear
5:53 AM 55.0 °F 53.1 °F 93% 30.14 in 10.0 mi ENE 6.9 mph - N/A   Clear
6:53 AM 57.9 °F 55.0 °F 90% 30.15 in 10.0 mi East 5.8 mph - N/A   Clear
7:53 AM 62.1 °F 57.0 °F 84% 30.16 in 10.0 mi ESE 6.9 mph - N/A   Clear
8:53 AM 66.0 °F 55.0 °F 68% 30.17 in 10.0 mi SE 13.8 mph - N/A   Clear
9:53 AM 69.1 °F 55.0 °F 61% 30.16 in 10.0 mi SE 11.5 mph - N/A   Clear
10:53 AM 71.1 °F 54.0 °F 55% 30.17 in 10.0 mi SSE 10.4 mph 19.6 mph N/A   Clear
11:53 AM 73.0 °F 53.1 °F 49% 30.17 in 10.0 mi SE 12.7 mph 20.7 mph N/A   Clear
12:53 PM 75.0 °F 53.1 °F 46% 30.16 in 10.0 mi SE 11.5 mph 23.0 mph N/A   Clear
1:53 PM 75.9 °F 53.1 °F 45% 30.15 in 10.0 mi SE 15.0 mph 21.9 mph N/A   Clear
2:53 PM 78.1 °F 54.0 °F 43% 30.14 in 10.0 mi SE 13.8 mph 23.0 mph N/A   Scattered Clouds
3:53 PM 78.1 °F 54.0 °F 43% 30.12 in 10.0 mi SE 13.8 mph 21.9 mph N/A   Clear
4:53 PM 77.0 °F 54.0 °F 45% 30.11 in 10.0 mi SE 18.4 mph 24.2 mph N/A   Clear
5:53 PM 75.9 °F 54.0 °F 46% 30.09 in 10.0 mi SE 17.3 mph 23.0 mph N/A   Clear
6:53 PM 73.0 °F 54.0 °F 51% 30.08 in 10.0 mi ESE 12.7 mph 20.7 mph N/A   Clear
7:53 PM 70.0 °F 55.0 °F 59% 30.08 in 10.0 mi SE 15.0 mph 19.6 mph N/A   Clear
8:53 PM 69.1 °F 55.9 °F 63% 30.06 in 10.0 mi SE 15.0 mph 24.2 mph N/A   Scattered Clouds
9:53 PM 68.0 °F 57.0 °F 68% 30.09 in 10.0 mi ESE 16.1 mph 25.3 mph N/A   Partly Cloudy
10:53 PM 68.0 °F 57.0 °F 68% 30.08 in 10.0 mi ESE 16.1 mph 23.0 mph N/A   Overcast
11:27 PM 66.2 °F 57.2 °F 73% 30.13 in 10.0 mi ESE 17.3 mph 25.3 mph 0.01 in Rain , Thunderstorm Light Rain
11:53 PM 64.9 °F 57.9 °F 78% 30.09 in 10.0 mi ESE 15.0 mph - 0.03 in Rain , Thunderstorm Light Thunderstorms and Rain